Notices

What's New in latest Release from April 7th, 2021:

- Updated Glossary, including Speed of Maximum Gust, and Total Hourly Precipitation

- Updated national and regional climate services offices contacts and prices information

- Addition of station inventory lists for 1981-2010, 1971-2000, and 1961-1990 Normals.

If you haven't already, please take our survey and provide feedback about our website: https://eccc.sondage-survey.ca/f/LanguageSelection.aspx?s=442ca660-fcf1-47c0-95a9-59707d6fd709

Hourly Data Report for January 01, 2021

STE-ANNE-DE-BELLEVUE 1
QUEBEC
Current Station Operator: ECCC - MSC

45°25'38.000" N
73°55'45.000" W
39.00 m
702FHL8
71377
WVQ

Download Data

Hourly Data (January 2021)
Hourly Data Report for January 1, 2021
TIME
LST
Temp Definition
°C
Dew Point Definition
°C
Rel Hum Definition
%
Precip. Amount Definition
mm

Wind Dir Definition
10's deg

Wind Spd Definition
km/h
Visibility Definition
km
Stn Press Definition
kPa
Hmdx Definition


Wind Chill Definition


Weather Definition


00:00 -5.1 -8.1 79 0.0 25 8   102.58   -9 LegendNANA
01:00 -4.5 -7.7 78 0.0 25 6   102.67   -7 LegendNANA
02:00 -4.7 -7.7 80 0.0 34 2   102.68   -6 LegendNANA
03:00 -4.0 -8.0 74 0.0 28 6   102.77   -7 LegendNANA
04:00 -3.9 -7.4 77 0.0 21 5   102.78   -6 LegendNANA
05:00 -5.6 -8.4 80 0.0 14 3   102.74   -7 LegendNANA
06:00 -7.8 -9.0 91 0.0   0   102.78     LegendNANA
07:00 -8.1 -9.3 91 0.0 29 2   102.89   -9 LegendNANA
08:00 -8.2 -9.3 92 0.0 17 1   102.85   -9 LegendNANA
09:00 -4.6 -7.1 82 0.0 18 5   102.91   -7 LegendNANA
10:00 -2.9 -6.4 77 0.0 17 5   102.94   -5 LegendNANA
11:00 -1.9 -6.4 71 0.0 14 6   102.80   -4 LegendNANA
12:00 -1.6 -6.7 68 0.0 14 8   102.69   -5 LegendNANA
13:00 -1.3 -6.9 66 0.0 14 9   102.62   -5 LegendNANA
14:00 -1.1 -6.8 65 0.0 16 9   102.56   -4 LegendNANA
15:00 -1.1 -7.0 64 0.0 14 8   102.54   -4 LegendNANA
16:00 -1.2 -7.3 63 0.0 11 11   102.36   -5 LegendNANA
17:00 -1.5 -7.2 65 0.0 12 13   102.27   -6 LegendNANA
18:00 -1.6 -7.1 66 0.0 13 11   102.22   -5 LegendNANA
19:00 -1.7 -7.5 64 0.0 13 13   102.13   -6 LegendNANA
20:00 -1.8 -7.5 65 0.0 10 13   101.93   -6 LegendNANA
21:00 -2.0 -7.4 66 0.0 8 10   101.79   -6 LegendNANA
22:00 -2.2 -7.2 68 0.0 9 7   101.66   -5 LegendNANA
23:00 -2.2 -7.7 66 0.0 8 10   101.57   -6 LegendNANA

Notes on Data Quality.

Legend

  • E = Estimated
  • M = Missing
  • NA = Not Available*
  • [empty] = Indicates an unobserved value
Date modified: